Find Starlink 2582

NORAD ID: 48460 Int'l Des: 2021-040 Owner: SPXS Country: US Constellation: starlink operational
LEOCIRCULAR

現在のビュー

3D地球を読み込み中...

Starlink 2582について

説明を読み込み中...

次回通過

Passes for default location (London). Set your location on the main map for personalized predictions.

高度履歴

Loading altitude history...

軌道要素

1 48460U 21040AJ 26150.16668980 .00116695 00000-0 77459-3 0 9990
2 48460 53.0494 90.5090 0006857 61.9597 270.0690 15.74618132 6003
Epoch: May 30, 2026 • Age: 10 hours

現在のステータス

高度 360.9 km
速度 7.69 km/s
衛星直下点 -34.97°S, 161.36°W
打ち上げ日 May 9, 2021
運用期間 5 years
タイプ internet

技術仕様

分類 Payload
質量 260.00 kg
乾燥質量 248.00 kg
総質量 260.00 kg
長さ 0.20 m
直径 2.80 m
スパン 9.00 m
形状 Box + pan
製造者 SPXS
バスタイプ Starlink
フェーズステータス In Orbit
所有者/国 SPXS/US

Most Searched